sat.trackr.live / text

‹ back to catalog

SHIJIAN-29A (SJ-29A)

NORAD 67302 · 2025-315A

PAYLOAD ACTIVE UNKNOWN

§ Identity

Operator
Country
PRC
Launch date
2025-12-30
Launch site
WSC
Launch vehicle
Mass (kg)
RCS (m²)

Purposes: comms

External: N2YO · Heavens-Above · Gunter

§ Orbital elements

Epoch: 2026-05-24T22:57:39.742272Z

Period
1,436.04 min
Inclination
3.3407°
Eccentricity
0.0002921
Mean motion
1.00275665 rev/d
Perigee alt
35,773.2 km
Apogee alt
35,797.8 km
Semi-major
42,163.6 km
B*
0.0000e+0
RAAN
95.6641°
Arg perigee
332.8446°
Mean anomaly
232.3003°
Rev number
138

§ Raw data

SHIJIAN-29A (SJ-29A)1 67302U 25315A   26144.95670998 -.00000076  00000+0  00000+0 0  99962 67302   3.3407  95.6641 0002921 332.8446 232.3003  1.00275665  1389

JSON: /api/v1/satellites/67302 · /tle

For live sub-satellite position, see the globe view (requires WebGL).

§ Visibility from observer

Set your observer location to see the next 7 days of passes ≥ 10°. The values pass through the URL so the page stays shareable.

No JS? Fill the form by hand. The geolocation button needs JavaScript.